Torna al catalogo

SL-8 DEB

AttivoLEO
NORAD 21943·DEBRIS·🇷🇺 Russia

Lanciato Feb 12, 1991 da Plesetsk Cosmodrome

Loading…

Prossimi Passaggi (prossime 24 ore)

TLE

AggiornatoSource: Space-Track

Epoca: Sep 14, 2026, 07:51 UTC

1 21943U 91009CE  26257.32744311 -.00000020  00000-0 -44372-4 0  9993
2 21943  73.9576  15.6000 0137580 306.4553  80.6883 12.19268820580881

Traccia SL-8 DEB in tempo reale con AllMySat

Download on the App Store